Weather History for Durant, OK

Change the Weather History Date:

Monday, January 7, 2013

  Actual Average (KADM) Record (KADM)
Temperature  
Mean Temperature 40 °F -  
Max Temperature 53 °F 50 °F 77 °F (2006)
Min Temperature 26 °F 32 °F 11 °F (2014)
Degree Days  
Heating Degree Days 26    
Moisture  
Dew Point 29 °F    
Average Humidity 69    
Maximum Humidity 86    
Minimum Humidity 44    
Precipitation  
Precipitation 0.00 in - - ()
Sea Level Pressure  
Sea Level Pressure 30.25 in    
Wind  
Wind Speed 4 mph (ESE)    
Max Wind Speed 13 mph    
Max Gust Speed 16 mph    
Visibility 10 miles    
Events      
Averages and records for this station are not official NWS values.
T = Trace of Precipitation, MM = Missing Value Source: NWS Daily Summary

Daily Weather History Graph

Daily Weather History Graph

Search for Another Location

Airport:

Trip Planner

Search our weather history database for the weather conditions in past years. The results will help you decide how hot, cold, wet, or windy it might be!

Date:

Astronomy

Jan. 07, 2013 Rise Set
Actual Time 7:31 AM CST 5:32 PM CST
Civil Twilight 7:04 AM CST 6:00 PM CST
Nautical Twilight 6:33 AM CST 6:31 PM CST
Astronomical Twilight 6:02 AM CST 7:01 PM CST
Moon 2:59 AM CST (1/7) 1:42 PM CST (1/7)
Length of Visible Light 10h 56m
Length of Day
10h 01m
Waning Crescent, 22% of the Moon is Illuminated
Jan 7
Waning Crescent
Jan 11
New
Jan 18
First Quarter
Jan 26
Full
Feb 3
Last Quarter

Hourly Weather History & Observations

Time (CST) Temp. Windchill Dew Point Humidity Pressure Visibility Wind Dir Wind Speed Gust Speed Precip Events Conditions
12:15 AM 32.0 °F 28.7 °F 23.0 °F 69% 30.35 in 10.0 mi North 3.5 mph - N/A   Clear
12:35 AM 32.0 °F 27.5 °F 23.0 °F 69% 30.35 in 10.0 mi NNE 4.6 mph - N/A   Clear
12:55 AM 32.0 °F 28.7 °F 23.0 °F 69% 30.35 in 10.0 mi NNE 3.5 mph - N/A   Clear
1:15 AM 32.0 °F 27.5 °F 23.0 °F 69% 30.34 in 10.0 mi NNE 4.6 mph - N/A   Clear
1:35 AM 32.0 °F 28.7 °F 23.0 °F 69% 30.34 in 10.0 mi NNE 3.5 mph - N/A   Clear
1:55 AM 32.0 °F 28.7 °F 23.0 °F 69% 30.33 in 10.0 mi NE 3.5 mph - N/A   Clear
2:15 AM 32.0 °F - 23.0 °F 69% 30.33 in 10.0 mi Calm Calm - N/A   Clear
2:35 AM 32.0 °F - 23.0 °F 69% 30.32 in 10.0 mi Calm Calm - N/A   Clear
2:55 AM 32.0 °F - 23.0 °F 69% 30.32 in 10.0 mi Calm Calm - N/A   Clear
3:15 AM 30.2 °F - 23.0 °F 75% 30.32 in 10.0 mi Calm Calm - N/A   Clear
3:35 AM 30.2 °F - 23.0 °F 75% 30.32 in 10.0 mi Calm Calm - N/A   Clear
3:55 AM 30.2 °F - 23.0 °F 75% 30.32 in 10.0 mi Calm Calm - N/A   Clear
4:15 AM 30.2 °F - 23.0 °F 75% 30.33 in 10.0 mi Calm Calm - N/A   Clear
4:35 AM 30.2 °F - 23.0 °F 75% 30.32 in 10.0 mi Calm Calm - N/A   Clear
4:55 AM 30.2 °F 26.7 °F 23.0 °F 75% 30.32 in 10.0 mi NE 3.5 mph - N/A   Clear
5:15 AM 30.2 °F 25.4 °F 23.0 °F 75% 30.31 in 10.0 mi ENE 4.6 mph - N/A   Clear
5:35 AM 28.4 °F 24.6 °F 23.0 °F 80% 30.31 in 10.0 mi ENE 3.5 mph - N/A   Clear
5:55 AM 28.4 °F - 23.0 °F 80% 30.32 in 10.0 mi Calm Calm - N/A   Clear
6:15 AM 28.4 °F 23.3 °F 23.0 °F 80% 30.32 in 10.0 mi ENE 4.6 mph - N/A   Clear
6:35 AM 26.6 °F 22.6 °F 23.0 °F 86% 30.32 in 10.0 mi East 3.5 mph - N/A   Clear
6:55 AM 28.4 °F - 23.0 °F 80% 30.32 in 10.0 mi Calm Calm - N/A   Clear
7:15 AM 28.4 °F - 23.0 °F 80% 30.32 in 10.0 mi Calm Calm - N/A   Clear
7:35 AM 28.4 °F - 23.0 °F 80% 30.33 in 10.0 mi Calm Calm - N/A   Clear
7:55 AM 28.4 °F - 23.0 °F 80% 30.34 in 10.0 mi Calm Calm - N/A   Clear
8:35 AM 32.0 °F 28.7 °F 26.6 °F 80% 30.35 in 10.0 mi East 3.5 mph - N/A   Clear
8:55 AM 33.8 °F 27.7 °F 28.4 °F 81% 30.34 in 10.0 mi ESE 6.9 mph - N/A   Clear
9:15 AM 33.8 °F 27.0 °F 28.4 °F 81% 30.34 in 10.0 mi ESE 8.1 mph - N/A   Clear
9:35 AM 35.6 °F 29.9 °F 30.2 °F 81% 30.35 in 10.0 mi SE 6.9 mph - N/A   Clear
9:55 AM 37.4 °F 32.1 °F 32.0 °F 81% 30.35 in 10.0 mi ESE 6.9 mph - N/A   Clear
10:15 AM 39.2 °F 33.6 °F 32.0 °F 75% 30.35 in 10.0 mi SE 8.1 mph - N/A   Clear
10:35 AM 41.0 °F 34.7 °F 32.0 °F 70% 30.34 in 10.0 mi SE 10.4 mph - N/A   Clear
10:55 AM 42.8 °F 37.5 °F 32.0 °F 66% 30.34 in 10.0 mi SSE 9.2 mph - N/A   Clear
11:35 AM 46.4 °F 41.9 °F 33.8 °F 62% 30.32 in 10.0 mi SE 9.2 mph - N/A   Clear
11:55 AM 46.4 °F 41.9 °F 33.8 °F 62% 30.30 in 10.0 mi SSE 9.2 mph - N/A   Clear
12:15 PM 50.0 °F - 33.8 °F 54% 30.29 in 10.0 mi South 10.4 mph - N/A   Clear
12:35 PM 50.0 °F - 35.6 °F 58% 30.27 in 10.0 mi South 11.5 mph - N/A   Clear
12:55 PM 51.8 °F - 33.8 °F 50% 30.25 in 10.0 mi SSE 9.2 mph - N/A   Clear
1:15 PM 51.8 °F - 33.8 °F 50% 30.24 in 10.0 mi South 6.9 mph - N/A   Clear
1:55 PM 53.6 °F - 33.8 °F 47% 30.22 in 10.0 mi SSE 8.1 mph 16.1 mph N/A   Clear
2:15 PM 53.6 °F - 33.8 °F 47% 30.20 in 10.0 mi SSE 10.4 mph - N/A   Clear
2:35 PM 53.6 °F - 33.8 °F 47% 30.19 in 10.0 mi SSE 11.5 mph - N/A   Clear
2:55 PM 53.6 °F - 32.0 °F 44% 30.18 in 10.0 mi SSE 10.4 mph - N/A   Clear
3:15 PM 51.8 °F - 33.8 °F 50% 30.19 in 10.0 mi SSE 11.5 mph - N/A   Clear
3:35 PM 51.8 °F - 33.8 °F 50% 30.18 in 10.0 mi SE 12.7 mph - N/A   Clear
3:55 PM 51.8 °F - 33.8 °F 50% 30.17 in 10.0 mi SE 8.1 mph - N/A   Clear
4:15 PM 51.8 °F - 33.8 °F 50% 30.18 in 10.0 mi SSE 8.1 mph - N/A   Clear
4:35 PM 50.0 °F - 33.8 °F 54% 30.19 in 10.0 mi SSE 6.9 mph - N/A   Clear
4:55 PM 50.0 °F - 32.0 °F 50% 30.17 in 10.0 mi SE 8.1 mph - N/A   Clear
5:15 PM 46.4 °F 44.3 °F 32.0 °F 57% 30.18 in 10.0 mi SE 4.6 mph - N/A   Clear
5:35 PM 46.4 °F 43.5 °F 32.0 °F 57% 30.18 in 10.0 mi SE 5.8 mph - N/A   Clear
5:55 PM 44.6 °F 42.2 °F 32.0 °F 61% 30.17 in 10.0 mi ESE 4.6 mph - N/A   Clear
6:15 PM 42.8 °F 39.3 °F 32.0 °F 66% 30.17 in 10.0 mi ESE 5.8 mph - N/A   Clear
6:35 PM 42.8 °F 39.3 °F 32.0 °F 66% 30.17 in 10.0 mi ESE 5.8 mph - N/A   Clear
6:55 PM 41.0 °F 38.0 °F 32.0 °F 70% 30.17 in 10.0 mi ESE 4.6 mph - N/A   Clear
7:15 PM 41.0 °F - 32.0 °F 70% 30.17 in 10.0 mi Calm Calm - N/A   Clear
7:35 PM 41.0 °F 39.0 °F 32.0 °F 70% 30.17 in 10.0 mi ESE 3.5 mph - N/A   Clear
7:55 PM 39.2 °F 35.9 °F 32.0 °F 75% 30.17 in 10.0 mi SE 4.6 mph - N/A   Clear
8:15 PM 39.2 °F 35.9 °F 32.0 °F 75% 30.17 in 10.0 mi SSE 4.6 mph - N/A   Clear
8:35 PM 39.2 °F 35.9 °F 32.0 °F 75% 30.17 in 10.0 mi SE 4.6 mph - N/A   Clear
8:55 PM 39.2 °F 35.0 °F 32.0 °F 75% 30.15 in 10.0 mi ESE 5.8 mph - N/A   Clear
9:15 PM 39.2 °F 35.0 °F 32.0 °F 75% 30.15 in 10.0 mi ESE 5.8 mph - N/A   Clear
9:35 PM 41.0 °F 38.0 °F 32.0 °F 70% 30.15 in 10.0 mi SE 4.6 mph - N/A   Clear
9:55 PM 39.2 °F 35.0 °F 32.0 °F 75% 30.14 in 10.0 mi ESE 5.8 mph - N/A   Clear
10:15 PM 37.4 °F 32.8 °F 32.0 °F 81% 30.14 in 10.0 mi ESE 5.8 mph - N/A   Clear
10:35 PM 37.4 °F 33.8 °F 32.0 °F 81% 30.14 in 10.0 mi ESE 4.6 mph - N/A   Clear
10:55 PM 37.4 °F 32.8 °F 32.0 °F 81% 30.14 in 10.0 mi ESE 5.8 mph - N/A   Scattered Clouds
11:15 PM 37.4 °F 32.1 °F 32.0 °F 81% 30.13 in 10.0 mi SE 6.9 mph - N/A   Clear
11:35 PM 37.4 °F 32.1 °F 32.0 °F 81% 30.13 in 10.0 mi SE 6.9 mph - N/A   Clear
11:55 PM 39.2 °F 35.0 °F 32.0 °F 75% 30.12 in 10.0 mi SE 5.8 mph - N/A   Mostly Cloudy